BAW774 EGLL-ESSA

Flight info

Callsign BAW774
Flight time 2h 6m
Altitude 37000
Route BPK Q295 SOMVA DCT MAVAS DCT ANDIK N873 JUIST DCT DOSUR DCT MIKNA N851 PELUP Z226 NILUG
Aircraft A320/M-SDE3FGHIRWY/LB1

Departure

Time 2026-05-04 16:43
Airport London Heathrow Airport (EGLL)

Arrival

Time 2026-05-04 18:50
Airport Stockholm-Arlanda Airport (ESSA)
Time Latitude Longitude Altitude Speed Heading
2026-05-04 16:02 51.47188 -0.48591 86 ft 0 kts 269°
2026-05-04 16:28 51.47183 -0.48485 87 ft 4 kts 316°
2026-05-04 16:29 51.47152 -0.48472 86 ft 0 kts 359°
2026-05-04 16:32 51.47165 -0.48472 90 ft 3 kts 359°
2026-05-04 16:33 51.47241 -0.48473 86 ft 8 kts 360°
2026-05-04 16:33 51.47383 -0.48475 86 ft 13 kts 359°
2026-05-04 16:34 51.47547 -0.48473 86 ft 12 kts
2026-05-04 16:34 51.47578 -0.48361 87 ft 13 kts 89°
2026-05-04 16:35 51.47581 -0.47804 90 ft 20 kts 90°
2026-05-04 16:35 51.47583 -0.47043 90 ft 25 kts 89°
2026-05-04 16:36 51.47591 -0.46779 86 ft 23 kts 85°
2026-05-04 16:36 51.47595 -0.46223 88 ft 27 kts 90°
2026-05-04 16:37 51.47596 -0.45595 86 ft 30 kts 90°
2026-05-04 16:37 51.47597 -0.45287 86 ft 17 kts 90°
2026-05-04 16:37 51.47599 -0.44896 86 ft 20 kts 89°
2026-05-04 16:38 51.47600 -0.44418 86 ft 23 kts 90°
2026-05-04 16:39 51.47593 -0.43770 86 ft 18 kts 90°
2026-05-04 16:39 51.47670 -0.43434 88 ft 14 kts 38°
2026-05-04 16:40 51.47704 -0.43419 89 ft 1 kts
2026-05-04 16:40 51.47739 -0.43423 90 ft 5 kts 348°
2026-05-04 16:41 51.47769 -0.43498 87 ft 0 kts 269°
2026-05-04 16:42 51.47764 -0.45049 89 ft 128 kts 270°
2026-05-04 16:43 51.47747 -0.48685 526 ft 176 kts 271°
2026-05-04 16:43 51.47701 -0.52610 1622 ft 176 kts 270°
2026-05-04 16:43 51.47684 -0.54588 2103 ft 180 kts 271°
2026-05-04 16:44 51.49940 -0.62965 3624 ft 254 kts 309°
2026-05-04 16:45 51.53184 -0.64935 5111 ft 267 kts
2026-05-04 16:46 51.58019 -0.61095 6013 ft 277 kts 56°
2026-05-04 16:46 51.60312 -0.56082 6013 ft 278 kts 53°
2026-05-04 16:47 51.62567 -0.51018 6004 ft 278 kts 63°
2026-05-04 16:47 51.64293 -0.45460 6008 ft 278 kts 64°
2026-05-04 16:48 51.66879 -0.37088 6039 ft 278 kts 64°
2026-05-04 16:48 51.67741 -0.34289 6039 ft 279 kts 64°
2026-05-04 16:49 51.69444 -0.28744 6034 ft 278 kts 64°
2026-05-04 16:49 51.71155 -0.23162 6039 ft 278 kts 64°
2026-05-04 16:50 51.72867 -0.17560 6037 ft 278 kts 64°
2026-05-04 16:50 51.74574 -0.11960 6031 ft 279 kts 67°
2026-05-04 16:51 51.75363 -0.05840 6888 ft 282 kts 83°
2026-05-04 16:51 51.75624 -0.02691 7708 ft 285 kts 84°
2026-05-04 16:51 51.76169 0.03706 9270 ft 294 kts 84°
2026-05-04 16:52 51.76727 0.10380 10464 ft 314 kts 84°
2026-05-04 16:52 51.77021 0.13996 10639 ft 337 kts 83°
2026-05-04 16:53 51.77667 0.21887 11364 ft 364 kts 83°
2026-05-04 16:53 51.78673 0.34195 13325 ft 373 kts 83°
2026-05-04 16:54 51.79001 0.38302 13968 ft 377 kts 83°
2026-05-04 16:55 51.80341 0.55366 16298 ft 388 kts 84°
2026-05-04 16:55 51.81090 0.64053 17427 ft 396 kts 78°
2026-05-04 16:56 51.83000 0.72422 18546 ft 404 kts 69°
2026-05-04 16:56 51.86294 0.85154 20137 ft 414 kts 68°
2026-05-04 16:57 51.87408 0.89470 20651 ft 418 kts 68°
2026-05-04 16:57 51.89658 0.98223 21596 ft 424 kts 68°
2026-05-04 16:58 51.93067 1.11543 23032 ft 433 kts 68°
2026-05-04 16:58 51.94219 1.16067 23459 ft 436 kts 68°
2026-05-04 16:59 51.96540 1.25219 24191 ft 441 kts 68°
2026-05-04 17:00 52.00838 1.42244 25462 ft 449 kts 69°
2026-05-04 17:00 52.04786 1.58003 26556 ft 458 kts 69°
2026-05-04 17:01 52.06785 1.66000 27111 ft 461 kts 69°
2026-05-04 17:01 52.09199 1.75711 27767 ft 465 kts 69°
2026-05-04 17:02 52.12005 1.87077 28729 ft 465 kts 69°
2026-05-04 17:02 52.14011 1.95237 29503 ft 463 kts 70°
2026-05-04 17:03 52.15204 2.00105 29918 ft 463 kts 70°
2026-05-04 17:03 52.16382 2.04919 30279 ft 464 kts 70°
2026-05-04 17:03 52.18762 2.14673 31026 ft 463 kts 70°
2026-05-04 17:04 52.21130 2.24426 31802 ft 462 kts 70°
2026-05-04 17:04 52.23490 2.34179 32582 ft 462 kts 70°
2026-05-04 17:05 52.25838 2.43912 33366 ft 461 kts 70°
2026-05-04 17:05 52.28157 2.53605 34058 ft 462 kts 70°
2026-05-04 17:06 52.30477 2.63379 34665 ft 461 kts 71°
2026-05-04 17:06 52.31435 2.68372 34974 ft 460 kts 76°
2026-05-04 17:07 52.33213 2.78398 35546 ft 459 kts 76°
2026-05-04 17:07 52.33798 2.81710 35745 ft 458 kts 76°
2026-05-04 17:07 52.34961 2.88344 36119 ft 458 kts 76°
2026-05-04 17:07 52.35832 2.93346 36389 ft 457 kts 76°
2026-05-04 17:08 52.36700 2.98349 36640 ft 457 kts 76°
2026-05-04 17:08 52.38437 3.08392 36986 ft 460 kts 76°
2026-05-04 17:09 52.40191 3.18576 37023 ft 468 kts 76°
2026-05-04 17:09 52.41962 3.28867 37022 ft 470 kts 76°
2026-05-04 17:10 52.46331 3.54626 37017 ft 472 kts 77°
2026-05-04 17:11 52.48068 3.65004 37025 ft 473 kts 76°
2026-05-04 17:12 52.50676 3.80607 37018 ft 473 kts 76°
2026-05-04 17:13 52.54953 4.06582 36990 ft 473 kts 77°
2026-05-04 17:14 52.58360 4.27534 36988 ft 475 kts 77°
2026-05-04 17:15 52.60895 4.43306 37002 ft 476 kts 77°
2026-05-04 17:16 52.64232 4.64309 37008 ft 476 kts 77°
2026-05-04 17:17 52.67515 4.85269 37026 ft 476 kts 77°
2026-05-04 17:18 52.70781 5.06324 37003 ft 475 kts 77°
2026-05-04 17:19 52.74528 5.27150 37005 ft 478 kts 63°
2026-05-04 17:19 52.78273 5.36188 37002 ft 478 kts 51°
2026-05-04 17:20 52.82377 5.44846 37005 ft 479 kts 52°
2026-05-04 17:20 52.89066 5.57086 37014 ft 478 kts 45°
2026-05-04 17:21 52.98327 5.72858 37027 ft 479 kts 45°
2026-05-04 17:22 53.02961 5.80828 37039 ft 479 kts 45°
2026-05-04 17:23 53.12186 5.96851 37056 ft 480 kts 45°
2026-05-04 17:24 53.19095 6.08892 37049 ft 479 kts 45°
2026-05-04 17:25 53.28255 6.24945 37030 ft 479 kts 45°
2026-05-04 17:26 53.37430 6.41142 37029 ft 480 kts 45°
2026-05-04 17:27 53.48847 6.61457 37033 ft 480 kts 45°
2026-05-04 17:28 53.57986 6.77839 37038 ft 480 kts 45°
2026-05-04 17:29 53.71632 7.02471 37031 ft 480 kts 45°
2026-05-04 17:31 53.82943 7.23137 37043 ft 480 kts 46°
2026-05-04 17:32 53.94244 7.43910 37033 ft 479 kts 45°
2026-05-04 17:33 54.03230 7.60566 37048 ft 480 kts 45°
2026-05-04 17:34 54.12216 7.77333 37044 ft 479 kts 46°
2026-05-04 17:35 54.23368 7.98326 37031 ft 479 kts 46°
2026-05-04 17:36 54.27831 8.06774 37046 ft 478 kts 46°
2026-05-04 17:36 54.32284 8.15235 37036 ft 478 kts 46°
2026-05-04 17:37 54.36728 8.23714 37033 ft 478 kts 46°
2026-05-04 17:37 54.41144 8.32146 37032 ft 478 kts 46°
2026-05-04 17:38 54.45581 8.40657 37029 ft 478 kts 46°
2026-05-04 17:38 54.50007 8.49187 37045 ft 478 kts 46°
2026-05-04 17:39 54.56629 8.62013 37039 ft 477 kts 46°
2026-05-04 17:39 54.61009 8.70526 37023 ft 478 kts 46°
2026-05-04 17:40 54.65413 8.79125 37024 ft 478 kts 46°
2026-05-04 17:40 54.69819 8.87746 37041 ft 478 kts 46°
2026-05-04 17:41 54.74221 8.96381 37026 ft 478 kts 46°
2026-05-04 17:41 54.78611 9.05032 37021 ft 478 kts 47°
2026-05-04 17:42 54.82958 9.13649 37012 ft 478 kts 47°
2026-05-04 17:42 54.87343 9.22320 37006 ft 478 kts 46°
2026-05-04 17:43 54.91783 9.30908 37022 ft 478 kts 46°
2026-05-04 17:43 54.96241 9.39475 37018 ft 478 kts 46°
2026-05-04 17:44 55.00656 9.48029 37009 ft 478 kts 46°
2026-05-04 17:44 55.05079 9.56672 37014 ft 478 kts 46°
2026-05-04 17:45 55.09496 9.65348 37013 ft 478 kts 46°
2026-05-04 17:45 55.13911 9.74029 37029 ft 478 kts 46°
2026-05-04 17:46 55.18288 9.82657 37019 ft 477 kts 46°
2026-05-04 17:46 55.22685 9.91360 37011 ft 477 kts 46°
2026-05-04 17:47 55.27070 10.00070 36989 ft 476 kts 46°
2026-05-04 17:47 55.31452 10.08800 36976 ft 477 kts 46°
2026-05-04 17:48 55.35799 10.17500 36975 ft 477 kts 46°
2026-05-04 17:48 55.40174 10.26285 36996 ft 477 kts 46°
2026-05-04 17:49 55.44535 10.35072 36997 ft 476 kts 46°
2026-05-04 17:49 55.48882 10.43884 36993 ft 476 kts 47°
2026-05-04 17:50 55.53189 10.52648 36992 ft 476 kts 47°
2026-05-04 17:50 55.57528 10.61478 36978 ft 476 kts 47°
2026-05-04 17:51 55.61854 10.70327 36977 ft 476 kts 47°
2026-05-04 17:51 55.66176 10.79206 36974 ft 476 kts 47°
2026-05-04 17:52 55.70490 10.88101 36974 ft 476 kts 47°
2026-05-04 17:52 55.74765 10.96952 36973 ft 476 kts 47°
2026-05-04 17:53 55.79068 11.05876 36969 ft 476 kts 47°
2026-05-04 17:53 55.83363 11.14829 36989 ft 476 kts 47°
2026-05-04 17:54 55.87649 11.23802 36977 ft 476 kts 47°
2026-05-04 17:54 55.91898 11.32729 36972 ft 475 kts 47°
2026-05-04 17:55 55.96177 11.41730 36954 ft 476 kts 47°
2026-05-04 17:55 56.00440 11.50748 36947 ft 476 kts 47°
2026-05-04 17:56 56.04711 11.59828 36980 ft 476 kts 47°
2026-05-04 17:56 56.08973 11.68911 36970 ft 477 kts 47°
2026-05-04 17:57 56.13201 11.77956 36961 ft 477 kts 47°
2026-05-04 17:57 56.17450 11.87095 36960 ft 477 kts 47°
2026-05-04 17:58 56.21698 11.96252 36954 ft 477 kts 47°
2026-05-04 17:58 56.25940 12.05433 36968 ft 477 kts 47°
2026-05-04 17:59 56.30182 12.14641 36960 ft 478 kts 47°
2026-05-04 18:00 56.36499 12.28430 36951 ft 478 kts 48°
2026-05-04 18:00 56.40726 12.37702 36952 ft 478 kts 48°
2026-05-04 18:01 56.44947 12.46992 36950 ft 479 kts 48°
2026-05-04 18:01 56.49164 12.56306 36975 ft 479 kts 48°
2026-05-04 18:02 56.55455 12.70279 36964 ft 479 kts 48°
2026-05-04 18:02 56.59660 12.79664 36964 ft 479 kts 48°
2026-05-04 18:03 56.63863 12.89070 36965 ft 480 kts 48°
2026-05-04 18:03 56.68057 12.98505 36959 ft 480 kts 48°
2026-05-04 18:04 56.72221 13.07916 36964 ft 481 kts 48°
2026-05-04 18:05 56.78503 13.22184 36930 ft 482 kts 48°
2026-05-04 18:05 56.82689 13.31738 36919 ft 482 kts 48°
2026-05-04 18:06 56.88965 13.46102 36910 ft 482 kts 48°
2026-05-04 18:06 56.93112 13.55656 36940 ft 483 kts 48°
2026-05-04 18:07 56.97285 13.65306 36892 ft 484 kts 49°
2026-05-04 18:07 57.01459 13.74988 36899 ft 484 kts 49°
2026-05-04 18:08 57.05621 13.84692 36895 ft 484 kts 49°
2026-05-04 18:08 57.09777 13.94423 36890 ft 484 kts 49°
2026-05-04 18:09 57.18046 14.13908 36881 ft 486 kts 49°
2026-05-04 18:10 57.22197 14.23752 36874 ft 486 kts 49°
2026-05-04 18:10 57.26348 14.33619 36874 ft 486 kts 49°
2026-05-04 18:11 57.30457 14.43441 36867 ft 487 kts 49°
2026-05-04 18:11 57.34590 14.53356 36868 ft 486 kts 49°
2026-05-04 18:12 57.38716 14.63294 36891 ft 487 kts 49°
2026-05-04 18:12 57.42839 14.73261 36870 ft 487 kts 49°
2026-05-04 18:13 57.46964 14.83267 36862 ft 488 kts 49°
2026-05-04 18:14 57.53106 14.98262 36851 ft 488 kts 50°
2026-05-04 18:14 57.57209 15.08339 36849 ft 488 kts 50°
2026-05-04 18:15 57.65400 15.28593 36826 ft 489 kts 50°
2026-05-04 18:16 57.69494 15.38758 36828 ft 489 kts 50°
2026-05-04 18:16 57.73552 15.48878 36826 ft 490 kts 50°
2026-05-04 18:17 57.79659 15.64219 36687 ft 490 kts 50°
2026-05-04 18:17 57.83718 15.74452 35870 ft 488 kts 50°
2026-05-04 18:18 57.85740 15.79569 35461 ft 488 kts 50°
2026-05-04 18:18 57.87760 15.84701 35074 ft 488 kts 50°
2026-05-04 18:18 57.89815 15.89750 34679 ft 485 kts 45°
2026-05-04 18:18 57.92123 15.94206 34305 ft 479 kts 36°
2026-05-04 18:19 57.97315 16.01965 33512 ft 477 kts 33°
2026-05-04 18:19 57.99923 16.05825 33074 ft 477 kts 33°
2026-05-04 18:19 58.02533 16.09704 32681 ft 479 kts 33°
2026-05-04 18:20 58.05157 16.13615 32254 ft 481 kts 33°
2026-05-04 18:20 58.07785 16.17539 31832 ft 481 kts 33°
2026-05-04 18:20 58.10406 16.21459 31504 ft 481 kts 33°
2026-05-04 18:20 58.13037 16.25401 31241 ft 482 kts 33°
2026-05-04 18:21 58.15662 16.29338 30922 ft 482 kts 33°
2026-05-04 18:21 58.18298 16.33299 30571 ft 483 kts 33°
2026-05-04 18:21 58.20930 16.37262 30229 ft 484 kts 33°
2026-05-04 18:21 58.23567 16.41242 29882 ft 484 kts 34°
2026-05-04 18:22 58.26155 16.45208 29639 ft 487 kts 36°
2026-05-04 18:22 58.28584 16.49758 29205 ft 495 kts 45°
2026-05-04 18:22 58.30711 16.54940 28785 ft 499 kts 50°
2026-05-04 18:22 58.32775 16.60247 28373 ft 500 kts 50°
2026-05-04 18:23 58.34842 16.65558 27966 ft 498 kts 50°
2026-05-04 18:23 58.36902 16.70849 27557 ft 496 kts 49°
2026-05-04 18:23 58.38947 16.76106 27158 ft 493 kts 49°
2026-05-04 18:23 58.40984 16.81349 26762 ft 491 kts 49°
2026-05-04 18:24 58.43008 16.86571 26369 ft 488 kts 49°
2026-05-04 18:24 58.44991 16.91694 25993 ft 486 kts 49°
2026-05-04 18:24 58.46992 16.96879 25611 ft 483 kts 49°
2026-05-04 18:24 58.48981 17.02042 25227 ft 483 kts 49°
2026-05-04 18:25 58.50968 17.07211 24810 ft 481 kts 49°
2026-05-04 18:25 58.52945 17.12365 24382 ft 478 kts 49°
2026-05-04 18:25 58.54901 17.17484 23974 ft 474 kts 49°
2026-05-04 18:25 58.56840 17.22567 23575 ft 472 kts 49°
2026-05-04 18:26 58.58772 17.27647 23151 ft 470 kts 49°
2026-05-04 18:26 58.60662 17.32629 22684 ft 467 kts 49°
2026-05-04 18:26 58.62559 17.37654 22221 ft 464 kts 50°
2026-05-04 18:26 58.64444 17.42654 21765 ft 461 kts 50°
2026-05-04 18:27 58.66318 17.47629 21310 ft 458 kts 50°
2026-05-04 18:27 58.68176 17.52566 20865 ft 453 kts 50°
2026-05-04 18:27 58.70013 17.57454 20312 ft 450 kts 50°
2026-05-04 18:27 58.71847 17.62330 19719 ft 448 kts 50°
2026-05-04 18:28 58.73663 17.67174 19174 ft 445 kts 50°
2026-05-04 18:28 58.75469 17.72007 18624 ft 443 kts 51°
2026-05-04 18:28 58.77239 17.76757 18093 ft 441 kts 51°
2026-05-04 18:28 58.79023 17.81548 17500 ft 438 kts 50°
2026-05-04 18:29 58.81007 17.85929 16954 ft 429 kts 39°
2026-05-04 18:29 58.83300 17.89472 16414 ft 416 kts 24°
2026-05-04 18:29 58.85916 17.91460 15893 ft 396 kts
2026-05-04 18:29 58.88610 17.92093 15398 ft 386 kts 358°
2026-05-04 18:30 58.93915 17.92940 14418 ft 380 kts 358°
2026-05-04 18:30 58.96538 17.93344 13930 ft 377 kts 358°
2026-05-04 18:30 58.99147 17.93741 13437 ft 374 kts 358°
2026-05-04 18:31 59.01703 17.94132 12892 ft 361 kts 358°
2026-05-04 18:31 59.04113 17.94678 12353 ft 346 kts
2026-05-04 18:31 59.06441 17.95419 11832 ft 332 kts
2026-05-04 18:31 59.08680 17.96157 11319 ft 321 kts
2026-05-04 18:32 59.10829 17.96878 11011 ft 305 kts
2026-05-04 18:32 59.12903 17.97585 10812 ft 301 kts
2026-05-04 18:32 59.14954 17.98285 10611 ft 298 kts
2026-05-04 18:32 59.16992 17.98980 10402 ft 297 kts
2026-05-04 18:33 59.19018 17.99668 10204 ft 295 kts
2026-05-04 18:33 59.21036 18.00355 10016 ft 294 kts
2026-05-04 18:33 59.23024 18.01005 9845 ft 292 kts
2026-05-04 18:33 59.25027 18.01635 9649 ft 291 kts
2026-05-04 18:34 59.27020 18.02251 9380 ft 289 kts
2026-05-04 18:34 59.29002 18.02857 9117 ft 287 kts
2026-05-04 18:34 59.30970 18.03457 8849 ft 286 kts
2026-05-04 18:34 59.32931 18.04055 8581 ft 284 kts
2026-05-04 18:35 59.34887 18.04647 8209 ft 284 kts
2026-05-04 18:35 59.36842 18.05228 7817 ft 285 kts
2026-05-04 18:35 59.38802 18.05802 7430 ft 285 kts
2026-05-04 18:35 59.40763 18.06369 7048 ft 284 kts
2026-05-04 18:36 59.42713 18.06927 6747 ft 280 kts
2026-05-04 18:36 59.44607 18.07471 6719 ft 270 kts
2026-05-04 18:36 59.46406 18.08001 6723 ft 263 kts
2026-05-04 18:36 59.48202 18.08544 6721 ft 257 kts
2026-05-04 18:37 59.49946 18.09083 6738 ft 252 kts
2026-05-04 18:37 59.51640 18.09606 6705 ft 240 kts
2026-05-04 18:37 59.53239 18.10111 6698 ft 226 kts
2026-05-04 18:37 59.54744 18.10607 6695 ft 212 kts
2026-05-04 18:38 59.56171 18.11093 6709 ft 203 kts
2026-05-04 18:38 59.57502 18.11569 6714 ft 187 kts
2026-05-04 18:38 59.58739 18.12036 6699 ft 178 kts
2026-05-04 18:38 59.59948 18.12504 6695 ft 176 kts
2026-05-04 18:39 59.61141 18.12967 6700 ft 179 kts
2026-05-04 18:39 59.62371 18.13439 6701 ft 181 kts
2026-05-04 18:39 59.63613 18.13913 6702 ft 184 kts
2026-05-04 18:39 59.64882 18.14384 6703 ft 189 kts
2026-05-04 18:40 59.66184 18.14855 6703 ft 191 kts
2026-05-04 18:40 59.67501 18.15330 6640 ft 194 kts
2026-05-04 18:40 59.68874 18.15810 6055 ft 206 kts
2026-05-04 18:40 59.70307 18.16305 5419 ft 211 kts
2026-05-04 18:41 59.71760 18.16810 4874 ft 211 kts
2026-05-04 18:41 59.73199 18.17322 4358 ft 210 kts
2026-05-04 18:41 59.74611 18.17829 3846 ft 209 kts
2026-05-04 18:41 59.76034 18.18340 3331 ft 207 kts
2026-05-04 18:42 59.77448 18.18860 2814 ft 206 kts
2026-05-04 18:42 59.78845 18.19373 2521 ft 196 kts
2026-05-04 18:42 59.80113 18.19824 2477 ft 173 kts 360°
2026-05-04 18:42 59.81179 18.19426 2478 ft 148 kts 316°
2026-05-04 18:43 59.81670 18.17749 2498 ft 145 kts 278°
2026-05-04 18:43 59.81726 18.15733 2495 ft 147 kts 270°
2026-05-04 18:43 59.81691 18.13704 2493 ft 146 kts 268°
2026-05-04 18:43 59.81645 18.11715 2490 ft 146 kts 268°
2026-05-04 18:44 59.81593 18.09701 2489 ft 144 kts 268°
2026-05-04 18:44 59.81575 18.09032 2490 ft 143 kts 268°
2026-05-04 18:44 59.81493 18.05795 2488 ft 141 kts 265°
2026-05-04 18:44 59.81135 18.03977 2493 ft 144 kts 243°
2026-05-04 18:45 59.80552 18.02360 2477 ft 145 kts 232°
2026-05-04 18:45 59.79676 18.01294 2473 ft 152 kts 202°
2026-05-04 18:45 59.78634 18.00903 2491 ft 155 kts 200°
2026-05-04 18:45 59.77568 18.00512 2488 ft 156 kts 199°
2026-05-04 18:46 59.76508 18.00126 2408 ft 151 kts 200°
2026-05-04 18:46 59.75497 17.99759 2256 ft 145 kts 200°
2026-05-04 18:46 59.74523 17.99405 2094 ft 137 kts 200°
2026-05-04 18:46 59.73599 17.99066 1911 ft 137 kts 200°
2026-05-04 18:47 59.72666 17.98723 1727 ft 136 kts 199°
2026-05-04 18:47 59.71738 17.98384 1540 ft 135 kts 199°
2026-05-04 18:47 59.70814 17.98047 1353 ft 135 kts 200°
2026-05-04 18:47 59.69898 17.97713 1172 ft 134 kts 198°
2026-05-04 18:48 59.68983 17.97380 990 ft 133 kts 197°
2026-05-04 18:48 59.68074 17.97049 802 ft 133 kts 194°
2026-05-04 18:48 59.67156 17.96715 613 ft 134 kts 193°
2026-05-04 18:48 59.66257 17.96386 433 ft 133 kts 193°
2026-05-04 18:49 59.65354 17.96050 248 ft 132 kts 191°
2026-05-04 18:49 59.64457 17.95743 114 ft 127 kts 194°
2026-05-04 18:49 59.63706 17.95442 114 ft 86 kts 190°
2026-05-04 18:49 59.63265 17.95284 126 ft 54 kts 190°
2026-05-04 18:50 59.63012 17.95164 136 ft 32 kts 207°
2026-05-04 18:50 59.62869 17.94929 137 ft 20 kts 221°
2026-05-04 18:50 59.62840 17.94784 138 ft 12 kts 288°
2026-05-04 18:50 59.62917 17.94758 136 ft 14 kts 17°
2026-05-04 18:51 59.63028 17.94813 133 ft 19 kts
2026-05-04 18:51 59.63168 17.94847 127 ft 20 kts 11°
2026-05-04 18:51 59.63306 17.94904 121 ft 19 kts 10°
2026-05-04 18:51 59.63456 17.94970 119 ft 23 kts 11°
2026-05-04 18:52 59.63616 17.95019 113 ft 26 kts
2026-05-04 18:52 59.63782 17.95080 109 ft 26 kts 12°
2026-05-04 18:52 59.63942 17.95140 109 ft 22 kts 11°
2026-05-04 18:52 59.64105 17.95202 108 ft 25 kts
2026-05-04 18:53 59.64241 17.95236 106 ft 17 kts 356°
2026-05-04 18:53 59.64355 17.95128 104 ft 20 kts 313°
2026-05-04 18:53 59.64404 17.94856 103 ft 23 kts 267°
2026-05-04 18:53 59.64336 17.94564 103 ft 25 kts 238°
2026-05-04 18:54 59.64241 17.94265 103 ft 26 kts 237°
2026-05-04 18:54 59.64144 17.93962 108 ft 26 kts 238°
2026-05-04 18:54 59.64052 17.93674 112 ft 20 kts 238°
2026-05-04 18:54 59.63994 17.93473 112 ft 18 kts 250°
2026-05-04 18:55 59.64007 17.93222 110 ft 20 kts 297°
2026-05-04 18:55 59.64136 17.92865 112 ft 14 kts
2026-05-04 18:55 59.64189 17.92886 112 ft 6 kts 322°
2026-05-04 18:56 59.64216 17.92827 112 ft 6 kts 351°
2026-05-04 18:56 59.64259 17.92872 112 ft 8 kts 32°
2026-05-04 18:56 59.64307 17.92929 112 ft 5 kts 30°
2026-05-04 18:56 59.64321 17.92945 112 ft 1 kts 30°
2026-05-04 18:57 59.64323 17.92947 112 ft 0 kts 30°